Content
SEND FEEDBACK

Daily
Averages
Monthly
Summary
Mexico

PUEBLA, PUEBLA


Home > North America > Mexico > Puebla
Elevation: 7104 feet     Latitude: 19 02N     Longitude: 098 12W

WEATHER
 
SELECT A DAY
Number of Records: 121,093;   Date Range: 1/1/95 - 8/10/14
 
SHARE

PRINT THIS DATA

[ ← Previous Day ]
WEATHER ALMANAC - MAY 9, 2013
[ Next Day → ]
[ °C ]   °F
Weather ElementAverageHighLow
Temperature70.7 °F80.6 °F (2:40 pm)53.6 °F (6:42 am)
Dewpoint39.2 °F48 °F (9:50 am)32 °F (7:40 pm)
Humidity31.3 %58 % (6:42 am)16 % (6:40 pm)
Barometer30.23 in30.41 in (10:40 am)29.63 in (6:40 pm)
Wind Speed6.1 mph18.4 mph (5:40 pm)
Weather ElementAverage
Visibility3.6 mi
Wind DirectionSSE (167.6 °)

Weather ElementTotal
Precipitation---
Cooling Degree Days2.1 (Base 65)
Growing Degree Days17.1 (Base 50)
Averaged from 23 records on May 9, 2013
WEATHER CONDITIONS BREAKOUT
WIND DIRECTION BREAKOUT
WEATHER BY HOUR - MAY 9, 2013
[ °C ]   °F
Local TimeTemperatureDewpointHumidityBarometerVisibilityWind DirectionWind SpeedGust SpeedPrecipitationEventsConditions
6:42 AM53.6 °F39.2 °F58 %30.36 in4.0 miWNW (300°)3.5 mphMostly Cloudy
6:55 AM59.0 °F46.0 °F52 %29.83 in3.0 miCalm
7:40 AM55.4 °F39.2 °F54 %30.38 in4.0 miWNW (300°)2.3 mphMostly Cloudy
8:41 AM60.8 °F39.2 °F45 %30.39 in3.0 miNW (320°)4.6 mphHaze
9:40 AM66.2 °F42.8 °F43 %30.40 in3.0 miCalmHaze
9:50 AM69.0 °F48.0 °F36 %29.91 in3.0 miSouth (180°)2.2 mphSmoke
10:40 AM68.0 °F41.0 °F37 %30.41 in3.0 miESE (110°)5.8 mphHaze
11:41 AM73.4 °F39.2 °F29 %30.41 in3.0 miCalmHaze
12:10 PM73.4 °F41.0 °F31 %30.40 in2.5 miCalmHaze
12:40 PM75.2 °F41.0 °F29 %30.40 in2.5 miSSE (160°)5.8 mphHaze
12:45 PM78.0 °F46.0 °F22 %29.90 in3.0 miSSW (210°)2.2 mphSmoke
1:41 PM78.8 °F39.2 °F24 %30.37 in3.0 miSSE (150°)10.4 mphHaze
2:40 PM80.6 °F39.2 °F23 %30.34 in3.0 miSSE (160°)12.7 mphHaze
3:40 PM77.0 °F37.4 °F24 %30.32 in4.0 miSouth (170°)13.8 mphScattered Clouds
4:40 PM77.0 °F37.4 °F24 %30.29 in4.0 miSouth (180°)15.0 mphScattered Clouds
5:40 PM77.0 °F35.6 °F22 %30.28 in5.0 miSouth (180°)18.4 mphMostly Cloudy
6:40 PM75.2 °F33.8 °F22 %30.29 in4.0 miSouth (180°)15.0 mphMostly Cloudy
6:40 PM79.0 °F41.0 °F16 %29.63 in3.0 miSSW (210°)2.2 mphHaze
7:40 PM73.4 °F32.0 °F22 %30.29 in5.0 miSSW (200°)9.2 mphOvercast
8:40 PM69.8 °F33.8 °F27 %30.32 in4.0 miSSE (160°)6.9 mphOvercast
9:40 PM66.2 °F33.8 °F30 %30.35 in5.0 miESE (120°)8.1 mphMostly Cloudy
9:45 PM73.0 °F41.0 °F21 %29.65 in3.0 miCalmHaze
10:41 PM66.2 °F33.8 °F30 %30.38 in5.0 miSW (230°)2.3 mphScattered Clouds
Hourly data recorded from MMPB, located miles away from Puebla, Puebla







STORIES FROM OUR PARTNERS